Meteo pe oră la Ablyazovo

Astăzi, 24 Iulie, Sâmbătă

Timp Temperatura Precipitaţii Vânt Presiune Umiditate
00:00 +18°C° 0.7 mm 2 m/s 740 mmHg 92%
01:00 +18°C° 0.7 mm 2 m/s 740 mmHg 94%
02:00 +17°C° 0 mm 2 m/s 741 mmHg 93%
03:00 +17°C° 0 mm 2 m/s 741 mmHg 92%
04:00 +16°C° 0 mm 2 m/s 741 mmHg 91%
05:00 +17°C° 0 mm 3 m/s 741 mmHg 85%
06:00 +18°C° 0 mm 3 m/s 742 mmHg 79%
07:00 +19°C° 0 mm 3 m/s 742 mmHg 73%
08:00 +21°C° 0 mm 3 m/s 742 mmHg 61%
09:00 +23°C° 0 mm 4 m/s 742 mmHg 50%
10:00 +26°C° 0 mm 4 m/s 743 mmHg 38%
11:00 +27°C° 0 mm 4 m/s 743 mmHg 34%
12:00 +29°C° 0 mm 4 m/s 743 mmHg 30%
13:00 +30°C° 0 mm 4 m/s 743 mmHg 26%
14:00 +30°C° 0 mm 4 m/s 743 mmHg 26%
15:00 +32°C° 0 mm 4 m/s 743 mmHg 25%
16:00 +31°C° 0 mm 3 m/s 743 mmHg 24%
17:00 +30°C° 0 mm 3 m/s 743 mmHg 27%
18:00 +29°C° 0 mm 3 m/s 743 mmHg 29%
19:00 +28°C° 0 mm 3 m/s 744 mmHg 32%
20:00 +26°C° 0 mm 2 m/s 744 mmHg 34%
21:00 +25°C° 0 mm 2 m/s 744 mmHg 37%
22:00 +24°C° 0 mm 2 m/s 745 mmHg 40%
23:00 +23°C° 0 mm 2 m/s 745 mmHg 42%

Mâine, 25 Iulie, Duminică

Timp Temperatura Precipitaţii Vânt Presiune Umiditate
00:00 +21°C° 0 mm 2 m/s 745 mmHg 44%
01:00 +20°C° 0 mm 2 m/s 746 mmHg 45%
02:00 +19°C° 0 mm 2 m/s 746 mmHg 48%
03:00 +19°C° 0 mm 2 m/s 746 mmHg 52%
04:00 +18°C° 0 mm 2 m/s 746 mmHg 55%
05:00 +19°C° 0 mm 2 m/s 747 mmHg 52%
06:00 +20°C° 0 mm 3 m/s 747 mmHg 50%
07:00 +21°C° 0 mm 3 m/s 748 mmHg 47%
08:00 +23°C° 0 mm 4 m/s 748 mmHg 43%
09:00 +25°C° 0 mm 4 m/s 748 mmHg 40%
10:00 +27°C° 0 mm 4 m/s 749 mmHg 36%
11:00 +27°C° 0 mm 5 m/s 749 mmHg 35%
12:00 +27°C° 0 mm 5 m/s 749 mmHg 33%
13:00 +27°C° 0 mm 5 m/s 749 mmHg 32%
14:00 +28°C° 0 mm 5 m/s 749 mmHg 29%
15:00 +29°C° 0 mm 5 m/s 749 mmHg 27%
16:00 +29°C° 0 mm 6 m/s 749 mmHg 25%
17:00 +28°C° 0 mm 5 m/s 750 mmHg 26%
18:00 +27°C° 0 mm 5 m/s 750 mmHg 27%
19:00 +26°C° 0 mm 5 m/s 750 mmHg 29%
20:00 +23°C° 0 mm 5 m/s 751 mmHg 32%
21:00 +20°C° 0 mm 4 m/s 751 mmHg 36%
22:00 +18°C° 0 mm 3 m/s 752 mmHg 40%
23:00 +17°C° 0 mm 3 m/s 752 mmHg 41%

Poimâine, 26 Iulie, Luni

Timp Temperatura Precipitaţii Vânt Presiune Umiditate
00:00 +16°C° 0 mm 2 m/s 752 mmHg 42%
01:00 +16°C° 0 mm 2 m/s 752 mmHg 44%
02:00 +15°C° 0 mm 2 m/s 753 mmHg 46%
03:00 +14°C° 0 mm 1 m/s 753 mmHg 48%
04:00 +14°C° 0 mm 1 m/s 753 mmHg 49%
05:00 +16°C° 0 mm 1 m/s 753 mmHg 46%
06:00 +18°C° 0 mm 1 m/s 754 mmHg 43%
07:00 +20°C° 0 mm 1 m/s 754 mmHg 39%
08:00 +22°C° 0 mm 1 m/s 754 mmHg 35%
09:00 +24°C° 0 mm 1 m/s 754 mmHg 30%
10:00 +26°C° 0 mm 1 m/s 754 mmHg 26%
11:00 +27°C° 0 mm 2 m/s 754 mmHg 24%
12:00 +27°C° 0 mm 2 m/s 753 mmHg 22%
13:00 +28°C° 0 mm 3 m/s 753 mmHg 19%
14:00 +28°C° 0 mm 3 m/s 753 mmHg 19%
15:00 +29°C° 0 mm 4 m/s 753 mmHg 19%
16:00 +29°C° 0 mm 5 m/s 752 mmHg 19%
17:00 +28°C° 0 mm 5 m/s 752 mmHg 20%
18:00 +27°C° 0 mm 5 m/s 753 mmHg 22%
19:00 +26°C° 0 mm 5 m/s 753 mmHg 24%
20:00 +22°C° 0 mm 5 m/s 753 mmHg 28%
21:00 +20°C° 0 mm 4 m/s 753 mmHg 32%
22:00 +18°C° 0 mm 3 m/s 753 mmHg 36%
23:00 +17°C° 0 mm 3 m/s 753 mmHg 39%

27 Iulie, Marţi

Timp Temperatura Precipitaţii Vânt Presiune Umiditate
00:00 +16°C° 0 mm 2 m/s 753 mmHg 42%
01:00 +15°C° 0 mm 2 m/s 753 mmHg 45%
02:00 +15°C° 0 mm 2 m/s 753 mmHg 47%
03:00 +14°C° 0 mm 2 m/s 753 mmHg 49%
04:00 +14°C° 0 mm 2 m/s 753 mmHg 52%
05:00 +15°C° 0 mm 2 m/s 754 mmHg 47%
06:00 +18°C° 0 mm 1 m/s 754 mmHg 42%
07:00 +20°C° 0 mm 1 m/s 754 mmHg 38%
08:00 +21°C° 0 mm 2 m/s 753 mmHg 33%
09:00 +24°C° 0 mm 2 m/s 753 mmHg 29%
10:00 +26°C° 0 mm 2 m/s 753 mmHg 25%
11:00 +27°C° 0 mm 2 m/s 752 mmHg 24%
12:00 +28°C° 0 mm 2 m/s 752 mmHg 23%
13:00 +28°C° 0 mm 2 m/s 752 mmHg 22%
14:00 +29°C° 0 mm 3 m/s 751 mmHg 22%
15:00 +29°C° 0 mm 3 m/s 751 mmHg 21%
16:00 +29°C° 0 mm 4 m/s 750 mmHg 21%
17:00 +29°C° 0 mm 4 m/s 750 mmHg 23%
18:00 +28°C° 0 mm 4 m/s 750 mmHg 25%
19:00 +27°C° 0 mm 4 m/s 750 mmHg 27%
20:00 +25°C° 0 mm 3 m/s 750 mmHg 33%
21:00 +21°C° 0 mm 2 m/s 750 mmHg 39%
22:00 +20°C° 0 mm 1 m/s 750 mmHg 44%
23:00 +19°C° 0 mm 1 m/s 750 mmHg 46%

28 Iulie, Miercuri

Timp Temperatura Precipitaţii Vânt Presiune Umiditate
00:00 +19°C° 0 mm 1 m/s 750 mmHg 47%
01:00 +18°C° 0 mm 1 m/s 749 mmHg 48%
02:00 +18°C° 0 mm 1 m/s 749 mmHg 50%
03:00 +16°C° 0 mm 1 m/s 749 mmHg 52%
04:00 +16°C° 0 mm 1 m/s 749 mmHg 53%
05:00 +17°C° 0 mm 2 m/s 749 mmHg 51%
06:00 +19°C° 0 mm 2 m/s 749 mmHg 49%
07:00 +21°C° 0 mm 3 m/s 749 mmHg 47%
08:00 +22°C° 0 mm 3 m/s 749 mmHg 44%
09:00 +25°C° 0 mm 4 m/s 749 mmHg 41%
10:00 +26°C° 0 mm 5 m/s 749 mmHg 38%
11:00 +27°C° 0 mm 5 m/s 749 mmHg 35%
12:00 +28°C° 0 mm 5 m/s 748 mmHg 31%
13:00 +29°C° 0 mm 6 m/s 748 mmHg 28%
14:00 +29°C° 0 mm 6 m/s 748 mmHg 26%
15:00 +29°C° 0 mm 6 m/s 748 mmHg 24%
16:00 +29°C° 0 mm 6 m/s 748 mmHg 23%
17:00 +28°C° 0 mm 5 m/s 748 mmHg 24%
18:00 +28°C° 0 mm 5 m/s 748 mmHg 25%
19:00 +27°C° 0 mm 4 m/s 748 mmHg 26%
20:00 +25°C° 0 mm 3 m/s 748 mmHg 31%
21:00 +21°C° 0 mm 3 m/s 749 mmHg 35%
22:00 +19°C° 0 mm 2 m/s 749 mmHg 40%
23:00 +19°C° 0 mm 1 m/s 749 mmHg 42%

29 Iulie, Joi

Timp Temperatura Precipitaţii Vânt Presiune Umiditate
00:00 +18°C° 0 mm 1 m/s 749 mmHg 44%
01:00 +16°C° 0 mm 0 m/s 749 mmHg 46%
02:00 +15°C° 0 mm 0 m/s 749 mmHg 47%
03:00 +15°C° 0 mm 0 m/s 749 mmHg 49%
04:00 +14°C° 0 mm 0 m/s 749 mmHg 50%
05:00 +18°C° 0 mm 1 m/s 749 mmHg 45%
06:00 +20°C° 0 mm 1 m/s 750 mmHg 40%
07:00 +22°C° 0 mm 1 m/s 750 mmHg 35%
08:00 +25°C° 0 mm 2 m/s 750 mmHg 32%
09:00 +27°C° 0 mm 3 m/s 749 mmHg 29%
10:00 +29°C° 0 mm 4 m/s 749 mmHg 26%
11:00 +29°C° 0 mm 4 m/s 749 mmHg 27%
12:00 +29°C° 0 mm 4 m/s 749 mmHg 27%
13:00 +30°C° 0 mm 4 m/s 749 mmHg 28%
14:00 +30°C° 0 mm 4 m/s 748 mmHg 27%
15:00 +32°C° 0 mm 4 m/s 748 mmHg 25%
16:00 +33°C° 0 mm 4 m/s 748 mmHg 24%
17:00 +31°C° 0 mm 3 m/s 748 mmHg 24%
18:00 +31°C° 0 mm 2 m/s 747 mmHg 25%
19:00 +30°C° 0 mm 2 m/s 747 mmHg 25%
20:00 +28°C° 0 mm 1 m/s 747 mmHg 29%
21:00 +27°C° 0 mm 1 m/s 747 mmHg 32%
22:00 +25°C° 0 mm 1 m/s 747 mmHg 35%
23:00 +24°C° 0 mm 1 m/s 747 mmHg 37%
Arată mai mult

Formular de consimțământ

Meteoprog și furnizorii noștri de servicii pot stoca și accesa date personale, precum cookies, identificatori de dispozitiv sau alte tehnologii similare pe dispozitivul dumneavoastră și procesa astfel de date pentru a personaliza conținutul și reclamele, dar și pentru a oferi caracteristici de social media și pentru a analiza traficul.

  • Stocarea și/sau accesarea informațiilor pe dispozitivul dumneavoastră

    Cookies, identificatori de dispozitiv sau alte informații pot fi stocate sau accesate pe dispozitiv în scopurile indicate mai sus.

  • Reclame și conținut personalizat, evaluarea reclamelor și a conținutului, informații despre audiențe și dezvoltarea produselor

    Reclamele și conținutul pot fi personalizate pe baza unui profil. Pot fi adăugate date suplimentare pentru a personaliza mai bine reclamele și conținutul. Performanța reclamelor și conținutului poate fi măsurată. Pot fi obținute informații despre utilizatorii care au văzut reclamele și conținutul. Aceste date pot fi utilizate pentru a dezvolta sau îmbunătăți experiența utilizatorilor, sistemele și software-ul.

Dând clic pe ‘Sunt de acord’, permiteți utilizarea cookie-urilor menționate, a identificatorilor de dispozitiv, balizelor web sau altor tehnologii similare. Setările pot fi modificate din browser-ul dispozitivului dumneavoastră.

În anumite scopuri, interesele legitime pot prima asupra consimțământului. Puteți citi mai multe informații în acest sens în Politica privind Confidențialitatea Datelor și Cookie.